INTELSAT 35E (IS-35E) (42818 NORAD) Tracking and Keplerian Element Data

This shows tracking and keplerian element data for the satellite.

Feedback or suggestion? Click here.




ElementValue
Catalog42818
NameINTELSAT 35E (IS-35E)
Epoch Orbit1552
Epoch Day269.82836701
Epoch Year2021
RAAN223.4554
Inclination0.0198
Eccentricity0.0001837
Argument of Perigee325.3538
Mean Anonmoly80.7737
Mean Motion1.00272772
Decay Rate-2.39E-06
L11 42818U 17041A 21269.82836701 -.00000239 00000-0 00000-0 0 9996
L22 42818 0.0198 223.4554 0001837 325.3538 80.7737 1.00272772 15529

Live tracking and technical data element details for INTELSAT 35E (IS-35E) (NORAD 42818). INTELSAT 35E (IS-35E) can be tracked NOW for your location showing map with azimuth and elevation plus other details from your city location.

Track the satellite on the map from your city or location and see movement details for azimuth, elevation, latitude, longitude, range, height, and movement on the map or in text.







IsCatalogInMostPopularTable: catalog: 42818, numindb: 559
Update: records affected: 1



GetName: 42818 INTELSAT 35E (IS-35E)

Hit Count: updated at: Tue, 28 Sep 2021 16:09:15 GMT